This is the latest recevied weather packets stored in our database for station/object K5BOU. If no packets are shown the sender has not sent any weather packets the latest 10 day(s).
| Time | Temp. | Humidity | Pressure | Rain* | Wind** | Luminosity | Snow |
|---|---|---|---|---|---|---|---|
| 1787866876 | 37.22° C | 53% | 1009.9 hPa | 0 mm | - | 467 W/m² | - |
| 1787866571 | 37.22° C | 53% | 1010 hPa | 0 mm | - | 475 W/m² | - |
| 1787866269 | 37.22° C | 53% | 1009.9 hPa | 0 mm | - | 488 W/m² | - |
| 1787865965 | 37.22° C | 54% | 1010.1 hPa | 0 mm | - | 493 W/m² | - |
| 1787865661 | 37.22° C | 54% | 1010.2 hPa | 0 mm | - | 517 W/m² | - |
| 1787865360 | 37.22° C | 55% | 1010.3 hPa | 0 mm | - | 539 W/m² | - |
| 1787865055 | 37.78° C | 53% | 1010.5 hPa | 0 mm | - | 140 W/m² | - |
| 1787864751 | 37.22° C | 54% | 1010.6 hPa | 0 mm | - | 532 W/m² | - |
| 1787864450 | 37.22° C | 56% | 1010.5 hPa | 0 mm | - | 548 W/m² | - |
| 1787864150 | 37.22° C | 55% | 1010.4 hPa | 0 mm | - | 570 W/m² | - |
| 1787863844 | 37.22° C | 56% | 1010.5 hPa | 0 mm | - | 573 W/m² | - |
| 1787863542 | 37.22° C | 54% | 1010.6 hPa | 0 mm | - | 580 W/m² | - |
| 1787863238 | 37.22° C | 55% | 1010.7 hPa | 0 mm | - | 596 W/m² | - |
| 1787862934 | 37.22° C | 54% | 1010.7 hPa | 0 mm | - | 592 W/m² | - |
| 1787862629 | 36.67° C | 55% | 1010.8 hPa | 0 mm | - | 605 W/m² | - |
| 1787862324 | 36.67° C | 55% | 1010.7 hPa | 0 mm | - | 623 W/m² | - |
| 1787862020 | 36.11° C | 56% | 1010.9 hPa | 0 mm | - | 632 W/m² | - |
| 1787861719 | 36.67° C | 55% | 1011 hPa | 0 mm | - | 637 W/m² | - |
| 1787861417 | 36.67° C | 57% | 1011.2 hPa | 0 mm | - | 640 W/m² | - |
| 1787861112 | 36.67° C | 55% | 1011.3 hPa | 0 mm | - | 654 W/m² | - |
| 1787860811 | 36.67° C | 56% | 1011.6 hPa | 0 mm | - | 657 W/m² | - |
| 1787860506 | 36.11° C | 55% | 1011.5 hPa | 0 mm | - | 669 W/m² | - |
| 1787860200 | 36.11° C | 54% | 1011.5 hPa | 0 mm | - | 673 W/m² | - |
| 1787859896 | 36.67° C | 54% | 1011.7 hPa | 0 mm | - | 672 W/m² | - |
| 1787859591 | 36.11° C | 61% | 1011.7 hPa | 0 mm | - | 672 W/m² | - |
* Rain latest hour (hover to see other rain measurements)
** Current wind speed in m/s (hover to see current wind gust speed)